Location: Mount Hamilton
(37.3433°N, 121.6347°W)
Time: 01:45:42
(UTC-08:00)

Envisat - Visible Passes

Search period start: 24 February 2018 00:00
Search period end: 06 March 2018 00:00
Orbit: 764 x 766 km, 98.2° (Epoch: 23 February)

Date Brightness Start Highest point End Pass type
(mag) Time Alt. Az. Time Alt. Az. Time Alt. Az.
24 Feb 3.4 19:02:51 10° SE 19:07:33 40° ENE 19:12:17 10° N visible
24 Feb 5.3 20:42:54 10° SW 20:46:42 21° W 20:50:30 10° NW visible
25 Feb 4.4 18:27:46 10° ESE 18:31:09 18° ENE 18:34:34 10° NNE visible
25 Feb 3.8 20:04:53 10° S 20:09:46 48° W 20:14:41 10° NNW visible
26 Feb 2.9 19:28:00 10° SSE 19:33:02 72° ENE 19:38:07 10° N visible
26 Feb 5.9 21:11:04 10° WSW 21:12:32 11° W 21:14:00 10° WNW visible
27 Feb 3.7 18:52:04 10° SE 18:56:30 32° ENE 19:00:57 10° N visible
27 Feb 4.9 20:31:14 10° SSW 20:35:28 27° W 20:39:45 10° NW visible
28 Feb 3.4 19:53:36 10° S 19:58:37 63° W 20:03:39 10° NNW visible
01 Mar 3.0 19:16:59 10° SSE 19:21:56 56° ENE 19:26:54 10° N visible
01 Mar 5.7 20:58:29 10° SW 21:01:16 15° W 21:04:05 10° WNW visible
02 Mar 4.0 18:41:22 10° ESE 18:45:27 25° ENE 18:49:34 10° NNE visible
02 Mar 4.5 20:19:42 10° SSW 20:24:17 34° W 20:28:53 10° NNW visible
03 Mar 3.0 19:42:24 10° S 19:47:27 81° WSW 19:52:35 10° NNW visible
04 Mar 3.3 19:06:04 10° SE 19:10:51 44° ENE 19:15:39 10° N visible
04 Mar 5.4 20:46:29 10° SW 20:50:02 19° W 20:53:36 10° NW visible
05 Mar 4.3 18:30:48 10° ESE 18:34:26 20° ENE 18:38:04 10° NNE visible
05 Mar 4.0 20:08:17 10° S 20:13:05 44° W 20:17:57 10° NNW visible
